{"data":{"norad_id":37867,"intl_designator":"2011-064A","name":"COSMOS 2476 (744)","alt_names":[],"object_type":"PAYLOAD","status":"ACTIVE","operator":null,"country":"CIS","launch_date":"2011-11-04","launch_site_code":"TYMSC","launch_vehicle":null,"mission":null,"orbit_class":"UNKNOWN","rcs_meters":6.3096,"size_class":null,"mass_kg":null,"dimensions":null,"purposes":["nav"],"wikipedia_slug":null,"has_3d_model":false,"image_url":null,"decayed_at":null,"tle_current":{"epoch":"2026-09-17T09:53:41.984736Z","epoch_age_seconds":281199,"freshness":"STALE","line1":"1 37867U 11064A   26260.41229149  .00000009  00000+0  00000+0 0  9998","line2":"2 37867  65.3277  69.7606 0022592 230.6839 126.2452  2.13103742115729","mean_motion":2.13103742,"eccentricity":0.0022592,"inclination_deg":65.3277,"raan_deg":69.7606,"arg_perigee_deg":230.6839,"mean_anomaly_deg":126.2452,"bstar":0,"rev_number":11572,"period_min":675.72722397338,"perigee_km":19072.121003694,"apogee_km":19187.375833168,"semimajor_km":25507.885418431,"source":"CELESTRAK","updated_at":"2026-09-20T09:00:46.274924Z"}}}